Muscle Shoals, AL

4:42 AM CDT on April 27, 2017 (GMT -0500)
Northwest Alabama Regional

Weather History for KMSL - December, 2011

Change the Weather History Date:

Monday, December 19, 2011

  Actual Average Record
Temperature  
Mean Temperature 47 °F 42 °F  
Max Temperature 61 °F 52 °F 75 °F (1924)
Min Temperature 33 °F 33 °F 9 °F (1963)
Degree Days  
Heating Degree Days 18 23  
Month to date heating degree days 348 392  
Since 1 July heating degree days 872 954  
Cooling Degree Days 0 0  
Month to date cooling degree days 0 0  
Year to date cooling degree days 2183 1871  
Moisture  
Dew Point 33 °F    
Average Humidity 61    
Maximum Humidity 89    
Minimum Humidity 32    
Precipitation  
Precipitation 0.00 in 0.17 in 1.60 in (1899)
Month to date precipitation 2.74 3.76  
Year to date precipitation 57.49 51.28  
Snow  
Snow 0.00 in - - ()
Month to date snowfall T  
Since 1 July snowfall T  
Snow Depth 0.00 in    
Sea Level Pressure  
Sea Level Pressure 30.21 in    
Wind  
Wind Speed 5 mph (SE)    
Max Wind Speed 13 mph    
Max Gust Speed 16 mph    
Visibility 10 miles    
Events      
T = Trace of Precipitation, MM = Missing Value Source: NWS Daily Summary

Daily Weather History Graph

Daily Weather History Graph

Search for Another Location

Airport or City:

Trip Planner

Search our weather history database for the weather conditions in past years. The results will help you decide how hot, cold, wet, or windy it might be!

Date:

Astronomy

Dec. 19, 2011 Rise Set
Actual Time 6:52 AM CST 4:42 PM CST
Civil Twilight 6:24 AM CST 5:10 PM CST
Nautical Twilight 5:53 AM CST 5:41 PM CST
Astronomical Twilight 5:22 AM CST 6:12 PM CST
Moon 1:11 AM CST (12/19) 12:33 PM CST (12/19)
Length of Visible Light 10h 45m
Length of Day
9h 49m
Waning Crescent, 31% of the Moon is Illuminated
Dec 19
Waning Crescent
Dec 24
New
Jan 1
First Quarter
Jan 9
Full
Jan 16
Last Quarter

Hourly Weather History & Observations

Time (CST) Temp. Windchill Dew Point Humidity Pressure Visibility Wind Dir Wind Speed Gust Speed Precip Events Conditions
12:53 AM 35.1 °F 31.0 °F 32.0 °F 89% 30.27 in 10.0 mi SSE 4.6 mph - N/A   Clear
1:53 AM 36.0 °F 33.3 °F 32.0 °F 86% 30.26 in 10.0 mi SE 3.5 mph - N/A   Clear
2:53 AM 36.0 °F - 30.9 °F 82% 30.25 in 10.0 mi Calm Calm - N/A   Clear
3:53 AM 35.6 °F 32.8 °F 30.2 °F 81% 30.24 in 10.0 mi ESE 3.5 mph - N/A   Clear
4:53 AM 34.0 °F 29.8 °F 30.0 °F 85% 30.24 in 10.0 mi ESE 4.6 mph - N/A   Clear
5:53 AM 35.6 °F - 30.2 °F 81% 30.25 in 10.0 mi Calm Calm - N/A   Clear
6:53 AM 34.0 °F 29.8 °F 30.0 °F 85% 30.27 in 10.0 mi East 4.6 mph - N/A   Clear
7:53 AM 37.0 °F 34.5 °F 33.1 °F 86% 30.29 in 10.0 mi SE 3.5 mph - N/A   Clear
8:53 AM 46.0 °F 43.1 °F 34.0 °F 63% 30.28 in 10.0 mi SSE 5.8 mph - N/A   Clear
9:53 AM 48.9 °F - 34.0 °F 56% 30.28 in 10.0 mi SSE 4.6 mph - N/A   Clear
10:53 AM 53.1 °F - 34.0 °F 48% 30.26 in 10.0 mi South 5.8 mph - N/A   Clear
11:53 AM 60.1 °F - 30.9 °F 33% 30.22 in 10.0 mi SSW 11.5 mph - N/A   Clear
12:53 PM 57.9 °F - 30.0 °F 35% 30.19 in 10.0 mi South 10.4 mph - N/A   Clear
1:53 PM 59.0 °F - 30.9 °F 35% 30.16 in 10.0 mi South 10.4 mph - N/A   Clear
2:53 PM 60.1 °F - 32.0 °F 35% 30.16 in 10.0 mi South 8.1 mph - N/A   Clear
3:53 PM 57.9 °F - 33.1 °F 39% 30.16 in 10.0 mi South 6.9 mph - N/A   Clear
4:53 PM 51.1 °F - 35.1 °F 54% 30.16 in 10.0 mi SSE 6.9 mph - N/A   Clear
5:53 PM 48.0 °F - 36.0 °F 63% 30.17 in 10.0 mi SSE 6.9 mph - N/A   Clear
6:53 PM 46.9 °F - 36.0 °F 66% 30.17 in 10.0 mi SSE 5.8 mph - N/A   Clear
7:53 PM 45.0 °F 42.6 °F 35.1 °F 68% 30.16 in 10.0 mi ESE 4.6 mph - N/A   Clear
8:53 PM 46.9 °F - 36.0 °F 66% 30.15 in 10.0 mi East 3.5 mph - N/A   Clear
9:53 PM 45.0 °F - 36.0 °F 71% 30.14 in 10.0 mi Calm Calm - N/A   Clear
10:53 PM 45.0 °F - 36.0 °F 71% 30.13 in 10.0 mi Calm Calm - N/A   Clear
11:53 PM 44.1 °F 41.5 °F 35.1 °F 71% 30.12 in 10.0 mi ENE 4.6 mph - N/A   Clear